Tracking 19792 objects as of 16-Jul-2019
HD Live streaming from Space Station
objects crossing your sky now

SL-12 R/B(2)

Track SL-12 R/B(2) now!


NORAD ID: 26397
Int'l Code: 2000-036D
Perigee: 35,742.0 km
Apogee: 35,918.7 km
Inclination: 12.5 °
Period: 1,438.0 minutes
Semi major axis: 42201 km
RCS: 2.5119 m2 (large)
Launch date: July 4, 2000
Source: Commonwealth of Independent States (former USSR) (CIS)
Launch site: TYURATAM MISSILE AND SPACE COMPLEX (TTMTR)

Note: This is a ROCKET BODY
aabbcc
Your satellite tracking list
Your tracking list is empty




NASA's NSSDC Master Catalog

Two Line Element Set (TLE):
1 26397U 00036D   19196.53718171 -.00000236 +00000-0 +00000-0 0  9997
2 26397 012.5101 026.0861 0020937 006.3782 184.2870 01.00141419021991
Source of the keplerian elements: AFSPC